YAOGAN-30 AD (49026 NORAD) Tracking and Keplerian Element Data

This shows tracking and keplerian element data for the satellite.

Feedback or suggestion? Click here.




ElementValue
Catalog49026
NameYAOGAN-30 AD
Epoch Orbit163
Epoch Day211.00183422
Epoch Year2021
RAAN211.8239
Inclination34.9945
Eccentricity0.0003142
Argument of Perigee202.8085
Mean Anonmoly196.8066
Mean Motion14.86641173
Decay Rate2.37E-06
L11 49026U 21065A 21211.00183422 .00000237 00000-0 29080-4 0 9997
L22 49026 34.9945 211.8239 0003142 202.8085 196.8066 14.86641173 1635

Live tracking and technical data element details for YAOGAN-30 AD (NORAD 49026). YAOGAN-30 AD can be tracked NOW for your location showing map with azimuth and elevation plus other details from your city location.

Track the satellite on the map from your city or location and see movement details for azimuth, elevation, latitude, longitude, range, height, and movement on the map or in text.







IsCatalogInMostPopularTable: catalog: 49026, numindb: 1
Update: records affected: 1



GetName: 49026 YAOGAN-30 AD

Hit Count: updated at: Sat, 31 Jul 2021 16:21:14 GMT